Tracking 30402 objects as of 12-May-2025
HD Live streaming from Space Station
objects crossing your sky now

THOR ABLESTAR DEB

Track THOR ABLESTAR DEB now!
10-day predictions


NORAD ID: 408
Int'l Code: 1961-015EH
Perigee: 936.7 km
Apogee: 1,028.2 km
Inclination: 66.8 °
Period: 104.6 minutes
Semi major axis: 7353 km
RCS: 0.1296 m2 (medium)
Launch date: June 29, 1961
Source: United States (US)
Launch site: AIR FORCE EASTERN TEST RANGE (AFETR)

Note: This is SATELLITE DEBRIS
Your satellite tracking list
Your tracking list is empty




NASA's NSSDC Master Catalog

Two Line Element Set (TLE):
1 00408U 61015EH  25131.93637307  .00000359  00000-0  43349-3 0  9998
2 00408  66.7874 346.8915 0062203  27.8910 102.4258 13.76792989250457
Source of the keplerian elements: AFSPC